Regional Weather Roundup
Issued by NWS

Home | Current Version | Previous Version | Text Only | Print | Product List | Glossary On
Versions: 1 2 3 4 5 6 7 8 9 10 11 12 13 14 15 16 17 18 19 20 21 22 23 24 25 26 27 28 29 30 31 32 33 34 35 36 37 38 39 40 41 42 43 44 45 46 47 48 49 50
071
ASUS43 KOAX 061810
RWRNE

WEATHER ROUNDUP FOR NEBRASKA
NATIONAL WEATHER SERVICE OMAHA NE
1200 PM CST SAT FEB 06 2016

NOTES: SATELLITE DATA IS BEING USED TO AUGMENT CLOUD COVER ABOVE
       12000 FEET.
       "FAIR" INDICATES FEW OR NO CLOUDS BELOW 12,000 FEET WITH NO
       SIGNIFICANT WEATHER AND/OR OBSTRUCTIONS TO VISIBILITY.

  * THESE STATIONS DO NOT REPORT WEATHER SUCH AS RAIN...SNOW OR FOG.

NEZ001>004-019>022-054>056-061900-
NEBRASKA PANHANDLE

CITY           SKY/WX    TMP DP  RH WIND       PRES   REMARKS
SCOTTSBLUFF    CLOUDY    39  23  52 NW22G29   30.12F WCI  29
6HR MIN TEMP:  19; 6HR MAX TEMP:  40;

ALLIANCE       CLOUDY    33  25  72 W16       30.09F WCI  23
6HR MIN TEMP:  15; 6HR MAX TEMP:  33;

CHADRON        CLOUDY    36  23  59 SW8       30.09F WCI  30
6HR MIN TEMP:  20; 6HR MAX TEMP:  37;

KIMBALL        CLOUDY    37  25  60 W15       30.14F WCI  28
SIDNEY         CLOUDY    36  23  59 W8        30.15F WCI  30
6HR MIN TEMP:  14; 6HR MAX TEMP:  36;

$$

NEZ057>060-069>072-079>082-061900-
SOUTHWEST NEBRASKA

CITY           SKY/WX    TMP DP  RH WIND       PRES   REMARKS
NORTH PLATTE   CLOUDY    30  18  60 W14       30.15F WCI  19
6HR MIN TEMP:   8; 6HR MAX TEMP:  30;

IMPERIAL       CLOUDY    31  17  56 W10       30.18F WCI  22
6HR MIN TEMP:  14; 6HR MAX TEMP:  31;

LEXINGTON      SUNNY     34  21  60 W13       30.17F WCI  25
MCCOOK         SUNNY     28  16  60 W12       30.22F WCI  18
6HR MIN TEMP:  12; 6HR MAX TEMP:  28;

OGALLALA       CLOUDY    25  15  65 W9        30.16F WCI  16
$$

NEZ005>010-023>029-035>040-094-061900-
NORTH CENTRAL NEBRASKA

CITY           SKY/WX    TMP DP  RH WIND       PRES   REMARKS
VALENTINE      SUNNY     42  25  50 W17       30.02F
6HR MIN TEMP:  20; 6HR MAX TEMP:  42;

AINSWORTH      SUNNY     45  26  47 W14       30.02F
BROKEN BOW     SUNNY     33  21  61 W13       30.10F WCI  24
6HR MIN TEMP:  13; 6HR MAX TEMP:  33;

O`NEILL        SUNNY     37  24  60 SW10      30.04F WCI  29
ORD            SUNNY     33  21  61 SW10      30.11F WCI  25
6HR MIN TEMP:  10; 6HR MAX TEMP:  33;

THEDFORD       SUNNY     44  27  51 W12       30.08F
$$

NEZ041-046>049-061>064-073>077-083>087-061900-
SOUTH CENTRAL NEBRASKA

CITY           SKY/WX    TMP DP  RH WIND       PRES   REMARKS
GRAND ISLAND   SUNNY     31  20  63 SW13      30.17F WCI  21
6HR MIN TEMP:  16; 6HR MAX TEMP:  31;

AURORA         SUNNY     28  20  72 SW14      30.17F WCI  17
HASTINGS       SUNNY     28  18  66 SW7       30.19F WCI  21
6HR MIN TEMP:  15; 6HR MAX TEMP:  28;

HEBRON         SUNNY     31  24  76 SW8       30.25F WCI  24
HOLDREGE       SUNNY     29  18  64 SW8       30.19F WCI  21
YORK           SUNNY     28  23  80 SW13      30.19F WCI  18
$$

NEZ011>018-030>034-042>045-061900-
NORTHEAST NEBRASKA

CITY           SKY/WX    TMP DP  RH WIND       PRES   REMARKS
NORFOLK        SUNNY     34  23  64 S15       30.09F WCI  24
6HR MIN TEMP:  13; 6HR MAX TEMP:  34;

ALBION         SUNNY     33  23  66 S8        30.11F WCI  26
BLAIR          SUNNY     32  27  82 SW10G16   30.20S WCI  24
COLUMBUS *     SUNNY     36  19  51 SW12      30.16F WCI  27
FREMONT        SUNNY     32  24  73 S9        30.18F WCI  24
TEKAMAH        SUNNY     29  25  85 SE10      30.18F WCI  20
6HR MIN TEMP:  13; 6HR MAX TEMP:  29;

WAYNE          SUNNY     33  25  71 SW13      30.11F WCI  24
$$

NEZ050>053-065>068-078-088>093-061900-
SOUTHEAST NEBRASKA

CITY           SKY/WX    TMP DP  RH WIND       PRES   REMARKS
LINCOLN        SUNNY     33  25  72 SW8       30.24F WCI  26
6HR MIN TEMP:  15; 6HR MAX TEMP:  33;

OMAHA EPPLEY   SUNNY     34  27  75 SW13      30.21F WCI  25
6HR MIN TEMP:  20; 6HR MAX TEMP:  34;

BEATRICE       SUNNY     36  28  73 SW13      30.25F WCI  27
FALLS CITY     SUNNY     43  30  60 SW12      30.25F
6HR MIN TEMP:  25; 6HR MAX TEMP:  43;

NEBRASKA CITY  SUNNY     34  30  85 W14G20    30.24F WCI  25
PLATTSMOUTH    SUNNY     33  29  85 SW12      30.22F WCI  24
$$

NEZ044-045-051>053-067-061900-
OMAHA AREA

CITY           SKY/WX    TMP DP  RH WIND       PRES   REMARKS
OMAHA EPPLEY   SUNNY     34  27  75 SW13      30.21F WCI  25
6HR MIN TEMP:  20; 6HR MAX TEMP:  34;

BLAIR          SUNNY     32  27  82 SW10G16   30.20S WCI  24
FREMONT        SUNNY     32  24  73 S9        30.18F WCI  24
MILLARD        SUNNY     35  30  83 S7        30.22F WCI  29
OFFUTT AFB     SUNNY     36  28  72 SW13      30.21F WCI  27
PLATTSMOUTH    SUNNY     33  29  85 SW12      30.22F WCI  24
WAHOO          FAIR      34  27  73 SW10      30.19F WCI  26
$$




USA.gov is the U.S. government's official web portal to all federal, state and local government web resources and services.